Location: Ballingbuur
(53.0000°N, 5.7667°E)
Time: 07:05:25
(UTC+00:00)

COSMOS 2455 - Pass Details

Date: 29 November 2020
Orbit: 900 x 909 km, 67.1° (Epoch: 24 January)

Event Time Altitude Azimuth Distance (km) Brightness Sun altitude
Rises 06:02:28 0° 208° (SSW) 3,521 5.8 -11.7°
Reaches altitude 10° 06:04:58 10° 206° (SSW) 2,585 5.2 -11.4°
Maximum altitude 06:10:56 71° 124° (SE) 961 3.2 -10.5°
Drops below altitude 10° 06:16:57 10° 42° (NE) 2,605 5.5 -9.7°
Sets 06:19:28 0° 40° (NE) 3,550 6.2 -9.4°
